,,Stat6,,Stat2,,Stat8,,Stat9,,Stat10,,Wind1,,Wind1,
time,status,PA1M_AVG,status,PR1M_SUM,status,RH1M_AVG,status,SR1M_AVG,status,TA1M_AVG,status,W1dAve1m,status,W1sAve1m,
2008-10-10, 00:00:00,VALID,917.724,VALID,0.2,VALID,100,VALID,0.0169808,VALID,20.7669,VALID,33,VALID,0,
2008-10-10, 00:01:00,VALID,917.706,VALID,0,VALID,100,VALID,0.0169808,VALID,20.744,VALID,33,VALID,0,
2008-10-10, 00:02:00,VALID,917.683,VALID,0,VALID,100,VALID,0,VALID,20.7347,VALID,33,VALID,0,
2008-10-10, 00:03:00,VALID,917.698,VALID,0,VALID,100,VALID,0.0339617,VALID,20.7537,VALID,33,VALID,0,
2008-10-10, 00:04:00,VALID,917.682,VALID,0.2,VALID,100,VALID,-0.0169808,VALID,20.7667,VALID,33,VALID,0,
2008-10-10, 00:05:00,VALID,917.675,VALID,0,VALID,100,VALID,-0.0169808,VALID,20.7685,VALID,33,VALID,0,
2008-10-10, 00:06:00,VALID,917.671,VALID,0,VALID,100,VALID,-0.0169808,VALID,20.7542,VALID,33,VALID,0,
2008-10-10, 00:07:00,VALID,917.675,VALID,0,VALID,100,VALID,0,VALID,20.7483,VALID,33,VALID,0,
2008-10-10, 00:08:00,VALID,917.665,VALID,0.2,VALID,100,VALID,0,VALID,20.7512,VALID,33,VALID,0,
2008-10-10, 00:09:00,VALID,917.656,VALID,0,VALID,100,VALID,0.0169808,VALID,20.7447,VALID,33,VALID,0,
2008-10-10, 00:10:00,VALID,917.652,VALID,0,VALID,100,VALID,0,VALID,20.7415,VALID,33,VALID,0,
2008-10-10, 00:11:00,VALID,917.636,VALID,0,VALID,100,VALID,0,VALID,20.774,VALID,33,VALID,0,
2008-10-10, 00:12:00,VALID,917.611,VALID,0.2,VALID,100,VALID,0,VALID,20.7515,VALID,33,VALID,0,
2008-10-10, 00:13:00,VALID,917.597,VALID,0,VALID,100,VALID,-0.0169808,VALID,20.7118,VALID,33,VALID,0,
2008-10-10, 00:14:00,VALID,917.576,VALID,0,VALID,100,VALID,-0.0169808,VALID,20.6863,VALID,33,VALID,0,
2008-10-10, 00:15:00,VALID,917.547,VALID,0,VALID,100,VALID,-0.0339617,VALID,20.6931,VALID,33,VALID,0,
2008-10-10, 00:16:00,VALID,917.527,VALID,0,VALID,100,VALID,0,VALID,20.6761,VALID,33,VALID,0,
2008-10-10, 00:17:00,VALID,917.508,VALID,0,VALID,100,VALID,0,VALID,20.6598,VALID,33,VALID,0,
2008-10-10, 00:18:00,VALID,917.507,VALID,0,VALID,100,VALID,-0.0169808,VALID,20.6569,VALID,33,VALID,0,
2008-10-10, 00:19:00,VALID,917.508,VALID,0.2,VALID,100,VALID,0,VALID,20.6666,VALID,33,VALID,0,
2008-10-10, 00:20:00,VALID,917.518,VALID,0,VALID,100,VALID,0,VALID,20.6536,VALID,33,VALID,0,
2008-10-10, 00:21:00,VALID,917.503,VALID,0,VALID,100,VALID,0,VALID,20.6566,VALID,33,VALID,0,
2008-10-10, 00:22:00,VALID,917.5,VALID,0,VALID,100,VALID,0,VALID,20.6533,VALID,33,VALID,0,
2008-10-10, 00:23:00,VALID,917.488,VALID,0,VALID,100,VALID,0.0169808,VALID,20.6698,VALID,33,VALID,0,
2008-10-10, 00:24:00,VALID,917.477,VALID,0,VALID,100,VALID,0.0509425,VALID,20.6661,VALID,33,VALID,0,
2008-10-10, 00:25:00,VALID,917.479,VALID,0,VALID,100,VALID,0.0169808,VALID,20.6531,VALID,33,VALID,0,
2008-10-10, 00:26:00,VALID,917.495,VALID,0,VALID,100,VALID,0.0339617,VALID,20.6436,VALID,33,VALID,0,
2008-10-10, 00:27:00,VALID,917.491,VALID,0,VALID,100,VALID,0.0169808,VALID,20.6374,VALID,33,VALID,0,
2008-10-10, 00:28:00,VALID,917.493,VALID,0,VALID,100,VALID,0,VALID,20.6404,VALID,33,VALID,0,
2008-10-10, 00:29:00,VALID,917.476,VALID,0,VALID,100,VALID,0,VALID,20.6404,VALID,33,VALID,0,
2008-10-10, 00:30:00,VALID,917.468,VALID,0,VALID,100,VALID,0,VALID,20.6563,VALID,33,VALID,0,
2008-10-10, 00:31:00,VALID,917.461,VALID,0,VALID,100,VALID,0.0169808,VALID,20.6666,VALID,33,VALID,0,
2008-10-10, 00:32:00,VALID,917.454,VALID,0,VALID,100,VALID,0,VALID,20.6828,VALID,33,VALID,0,
2008-10-10, 00:33:00,VALID,917.435,VALID,0,VALID,100,VALID,-0.0339617,VALID,20.6955,VALID,33,VALID,0,
2008-10-10, 00:34:00,VALID,917.419,VALID,0,VALID,100,VALID,-0.0509425,VALID,20.7061,VALID,33,VALID,0,
2008-10-10, 00:35:00,VALID,917.398,VALID,0,VALID,100,VALID,-0.0509425,VALID,20.7004,VALID,33,VALID,0,
2008-10-10, 00:36:00,VALID,917.379,VALID,0,VALID,100,VALID,-0.101885,VALID,20.7033,VALID,33,VALID,0,
2008-10-10, 00:37:00,VALID,917.362,VALID,0,VALID,100,VALID,-0.0679233,VALID,20.6871,VALID,33,VALID,0,
2008-10-10, 00:38:00,VALID,917.339,VALID,0,VALID,100,VALID,-0.0679233,VALID,20.6549,VALID,33,VALID,0,
2008-10-10, 00:39:00,VALID,917.326,VALID,0,VALID,100,VALID,-0.101885,VALID,20.6354,VALID,33,VALID,0,
2008-10-10, 00:40:00,VALID,917.324,VALID,0,VALID,100,VALID,-0.0849042,VALID,20.6452,VALID,33,VALID,0,
2008-10-10, 00:41:00,VALID,917.31,VALID,0,VALID,100,VALID,-0.0679233,VALID,20.6614,VALID,33,VALID,0,
2008-10-10, 00:42:00,VALID,917.3,VALID,0,VALID,100,VALID,-0.0679233,VALID,20.6646,VALID,33,VALID,0,
2008-10-10, 00:43:00,VALID,917.295,VALID,0.2,VALID,100,VALID,-0.0509425,VALID,20.6482,VALID,33,VALID,0,
2008-10-10, 00:44:00,VALID,917.29,VALID,0,VALID,100,VALID,-0.101885,VALID,20.6322,VALID,33,VALID,0,
2008-10-10, 00:45:00,VALID,917.294,VALID,0,VALID,100,VALID,-0.0679233,VALID,20.6157,VALID,33,VALID,0,
2008-10-10, 00:46:00,VALID,917.293,VALID,0,VALID,100,VALID,-0.0679233,VALID,20.6322,VALID,33,VALID,0,
2008-10-10, 00:47:00,VALID,917.291,VALID,0,VALID,100,VALID,-0.101885,VALID,20.616,VALID,33,VALID,0,
2008-10-10, 00:48:00,VALID,917.29,VALID,0,VALID,100,VALID,-0.101885,VALID,20.6125,VALID,33,VALID,0,
2008-10-10, 00:49:00,VALID,917.288,VALID,0,VALID,100,VALID,-0.0509425,VALID,20.6119,VALID,34,VALID,0,
2008-10-10, 00:50:00,VALID,917.263,VALID,0,VALID,100,VALID,0.0339617,VALID,20.5882,VALID,40,VALID,0,
2008-10-10, 00:51:00,VALID,917.248,VALID,0,VALID,100,VALID,0.0339617,VALID,20.549,VALID,31,VALID,0,
2008-10-10, 00:52:00,VALID,917.229,VALID,0,VALID,100,VALID,0,VALID,20.5138,VALID,31,VALID,0,
2008-10-10, 00:53:00,VALID,917.218,VALID,0,VALID,100,VALID,0.0509425,VALID,20.5233,VALID,31,VALID,0,
2008-10-10, 00:54:00,VALID,917.201,VALID,0,VALID,100,VALID,0,VALID,20.5365,VALID,31,VALID,0,
2008-10-10, 00:55:00,VALID,917.19,VALID,0,VALID,100,VALID,0.0169808,VALID,20.5235,VALID,31,VALID,0,
2008-10-10, 00:56:00,VALID,917.164,VALID,0,VALID,100,VALID,0.0169808,VALID,20.5268,VALID,31,VALID,0,
2008-10-10, 00:57:00,VALID,917.158,VALID,0,VALID,100,VALID,0.0169808,VALID,20.5398,VALID,31,VALID,0,
2008-10-10, 00:58:00,VALID,917.144,VALID,0,VALID,100,VALID,0,VALID,20.5562,VALID,31,VALID,0,
2008-10-10, 00:59:00,VALID,917.137,VALID,0,VALID,100,VALID,0,VALID,20.5692,VALID,31,VALID,0,
2008-10-10, 01:00:00,VALID,917.136,VALID,0,VALID,100,VALID,0.0339617,VALID,20.5722,VALID,31,VALID,0,
2008-10-10, 01:01:00,VALID,917.155,VALID,0,VALID,100,VALID,0,VALID,20.5625,VALID,31,VALID,0,
2008-10-10, 01:02:00,VALID,917.147,VALID,0,VALID,100,VALID,-0.0169808,VALID,20.5073,VALID,36,VALID,0,
2008-10-10, 01:03:00,VALID,917.144,VALID,0,VALID,100,VALID,0.0169808,VALID,20.4516,VALID,45,VALID,0,
2008-10-10, 01:04:00,VALID,917.16,VALID,0,VALID,100,VALID,-0.0509425,VALID,20.4462,VALID,69,VALID,0,
2008-10-10, 01:05:00,VALID,917.151,VALID,0,VALID,100,VALID,-0.0509425,VALID,20.4294,VALID,70,VALID,0,
2008-10-10, 01:06:00,VALID,917.145,VALID,0,VALID,100,VALID,-0.0169808,VALID,20.4229,VALID,73,VALID,0,
2008-10-10, 01:07:00,VALID,917.146,VALID,0,VALID,100,VALID,-0.0339617,VALID,20.4229,VALID,91,VALID,0,
2008-10-10, 01:08:00,VALID,917.132,VALID,0,VALID,100,VALID,0,VALID,20.4302,VALID,91,VALID,0,
2008-10-10, 01:09:00,VALID,917.12,VALID,0,VALID,100,VALID,-0.0849042,VALID,20.4369,VALID,91,VALID,0,
2008-10-10, 01:10:00,VALID,917.113,VALID,0,VALID,100,VALID,-0.0169808,VALID,20.4367,VALID,91,VALID,0,
2008-10-10, 01:11:00,VALID,917.098,VALID,0,VALID,100,VALID,-0.0679233,VALID,20.4532,VALID,91,VALID,0,
2008-10-10, 01:12:00,VALID,917.076,VALID,0,VALID,100,VALID,0,VALID,20.4589,VALID,91,VALID,0,
2008-10-10, 01:13:00,VALID,917.068,VALID,0,VALID,100,VALID,-0.0509425,VALID,20.4691,VALID,91,VALID,0,
2008-10-10, 01:14:00,VALID,917.068,VALID,0,VALID,100,VALID,0,VALID,20.4748,VALID,91,VALID,0,
2008-10-10, 01:15:00,VALID,917.057,VALID,0,VALID,100,VALID,-0.0679233,VALID,20.4946,VALID,91,VALID,0,
2008-10-10, 01:16:00,VALID,917.055,VALID,0,VALID,100,VALID,-0.0169808,VALID,20.5273,VALID,91,VALID,0,
2008-10-10, 01:17:00,VALID,917.045,VALID,0,VALID,100,VALID,-0.0849042,VALID,20.5468,VALID,91,VALID,0,
2008-10-10, 01:18:00,VALID,917.05,VALID,0,VALID,100,VALID,-0.0509425,VALID,20.5727,VALID,91,VALID,0,
2008-10-10, 01:19:00,VALID,917.054,VALID,0,VALID,100,VALID,-0.0339617,VALID,20.5732,VALID,91,VALID,0,
2008-10-10, 01:20:00,VALID,917.05,VALID,0,VALID,100,VALID,-0.0509425,VALID,20.527,VALID,91,VALID,0,
2008-10-10, 01:21:00,VALID,917.043,VALID,0,VALID,100,VALID,-0.0169808,VALID,20.4978,VALID,91,VALID,0,
2008-10-10, 01:22:00,VALID,917.028,VALID,0,VALID,100,VALID,-0.0169808,VALID,20.4781,VALID,91,VALID,0,
2008-10-10, 01:23:00,VALID,917.029,VALID,0,VALID,100,VALID,-0.0169808,VALID,20.4756,VALID,91,VALID,0,
2008-10-10, 01:24:00,VALID,917.021,VALID,0,VALID,100,VALID,-0.0509425,VALID,20.4686,VALID,91,VALID,0,
2008-10-10, 01:25:00,VALID,917.007,VALID,0,VALID,100,VALID,-0.0679233,VALID,20.4891,VALID,91,VALID,0,
2008-10-10, 01:26:00,VALID,916.998,VALID,0,VALID,100,VALID,-0.0339617,VALID,20.4886,VALID,91,VALID,0,
2008-10-10, 01:27:00,VALID,916.986,VALID,0,VALID,100,VALID,-0.0509425,VALID,20.5018,VALID,91,VALID,0,
2008-10-10, 01:28:00,VALID,916.975,VALID,0,VALID,100,VALID,-0.0509425,VALID,20.5111,VALID,91,VALID,0,
2008-10-10, 01:29:00,VALID,916.948,VALID,0,VALID,100,VALID,-0.0169808,VALID,20.5343,VALID,91,VALID,0,
2008-10-10, 01:30:00,VALID,916.932,VALID,0,VALID,100,VALID,-0.0679233,VALID,20.534,VALID,91,VALID,0,
2008-10-10, 01:31:00,VALID,916.912,VALID,0,VALID,100,VALID,-0.0339617,VALID,20.5273,VALID,91,VALID,0,
2008-10-10, 01:32:00,VALID,916.894,VALID,0.2,VALID,100,VALID,-0.0509425,VALID,20.5111,VALID,91,VALID,0,
2008-10-10, 01:33:00,VALID,916.885,VALID,0,VALID,100,VALID,-0.0509425,VALID,20.5176,VALID,91,VALID,0,
2008-10-10, 01:34:00,VALID,916.857,VALID,0,VALID,100,VALID,-0.0679233,VALID,20.524,VALID,91,VALID,0,
2008-10-10, 01:35:00,VALID,916.863,VALID,0,VALID,100,VALID,-0.0679233,VALID,20.5346,VALID,91,VALID,0,
2008-10-10, 01:36:00,VALID,916.842,VALID,0,VALID,100,VALID,-0.101885,VALID,20.5243,VALID,91,VALID,0,
2008-10-10, 01:37:00,VALID,916.832,VALID,0,VALID,100,VALID,-0.0849042,VALID,20.5048,VALID,91,VALID,0,
2008-10-10, 01:38:00,VALID,916.823,VALID,0,VALID,100,VALID,-0.0679233,VALID,20.4986,VALID,91,VALID,0,
2008-10-10, 01:39:00,VALID,916.807,VALID,0,VALID,100,VALID,-0.0679233,VALID,20.4562,VALID,91,VALID,0,
2008-10-10, 01:40:00,VALID,916.796,VALID,0,VALID,100,VALID,-0.0679233,VALID,20.4275,VALID,91,VALID,0,
2008-10-10, 01:41:00,VALID,916.794,VALID,0,VALID,100,VALID,-0.0339617,VALID,20.4007,VALID,66,VALID,0,
2008-10-10, 01:42:00,VALID,916.771,VALID,0,VALID,100,VALID,-0.0339617,VALID,20.4007,VALID,29,VALID,0,
2008-10-10, 01:43:00,VALID,916.751,VALID,0,VALID,100,VALID,-0.0169808,VALID,20.375,VALID,32,VALID,0,
2008-10-10, 01:44:00,VALID,916.747,VALID,0,VALID,100,VALID,-0.0339617,VALID,20.3296,VALID,36,VALID,0,
2008-10-10, 01:45:00,VALID,916.735,VALID,0,VALID,100,VALID,-0.0169808,VALID,20.3328,VALID,36,VALID,0,
2008-10-10, 01:46:00,VALID,916.712,VALID,0,VALID,100,VALID,-0.0849042,VALID,20.3358,VALID,35,VALID,0,
2008-10-10, 01:47:00,VALID,916.704,VALID,0,VALID,100,VALID,-0.0509425,VALID,20.3331,VALID,35,VALID,0,
2008-10-10, 01:48:00,VALID,916.691,VALID,0,VALID,100,VALID,-0.0169808,VALID,20.3655,VALID,35,VALID,0,
2008-10-10, 01:49:00,VALID,916.669,VALID,0,VALID,100,VALID,-0.0169808,VALID,20.3678,VALID,35,VALID,0,
2008-10-10, 01:50:00,VALID,916.666,VALID,0,VALID,100,VALID,0.0509425,VALID,20.3802,VALID,35,VALID,0,
2008-10-10, 01:51:00,VALID,916.652,VALID,0,VALID,100,VALID,0.0339617,VALID,20.3802,VALID,35,VALID,0,
2008-10-10, 01:52:00,VALID,916.644,VALID,0,VALID,100,VALID,0.0339617,VALID,20.397,VALID,35,VALID,0,
2008-10-10, 01:53:00,VALID,916.627,VALID,0.2,VALID,100,VALID,0.0509425,VALID,20.4089,VALID,35,VALID,0,
2008-10-10, 01:54:00,VALID,916.603,VALID,0,VALID,100,VALID,0.0339617,VALID,20.4124,VALID,35,VALID,0,
2008-10-10, 01:55:00,VALID,916.587,VALID,0,VALID,100,VALID,0.0679233,VALID,20.387,VALID,35,VALID,0,
2008-10-10, 01:56:00,VALID,916.563,VALID,0,VALID,100,VALID,0.0509425,VALID,20.3678,VALID,35,VALID,0,
2008-10-10, 01:57:00,VALID,916.544,VALID,0,VALID,100,VALID,0.0169808,VALID,20.3675,VALID,35,VALID,0,
2008-10-10, 01:58:00,VALID,916.508,VALID,0,VALID,100,VALID,0,VALID,20.364,VALID,35,VALID,0,
2008-10-10, 01:59:00,VALID,916.489,VALID,0,VALID,100,VALID,0.0679233,VALID,20.361,VALID,35,VALID,0,
2008-10-10, 02:00:00,VALID,916.481,VALID,0,VALID,100,VALID,0.0509425,VALID,20.357,VALID,35,VALID,0,
2008-10-10, 02:01:00,VALID,916.471,VALID,0,VALID,100,VALID,0.0509425,VALID,20.3602,VALID,35,VALID,0,
2008-10-10, 02:02:00,VALID,916.464,VALID,0,VALID,100,VALID,0,VALID,20.3772,VALID,35,VALID,0,
2008-10-10, 02:03:00,VALID,916.47,VALID,0,VALID,100,VALID,0.0849042,VALID,20.3897,VALID,35,VALID,0,
2008-10-10, 02:04:00,VALID,916.486,VALID,0,VALID,100,VALID,-0.0339617,VALID,20.3905,VALID,35,VALID,0,
2008-10-10, 02:05:00,VALID,916.48,VALID,0,VALID,100,VALID,-0.0509425,VALID,20.388,VALID,35,VALID,0,
2008-10-10, 02:06:00,VALID,916.495,VALID,0,VALID,100,VALID,-0.0169808,VALID,20.3807,VALID,35,VALID,0,
2008-10-10, 02:07:00,VALID,916.497,VALID,0,VALID,100,VALID,-0.0509425,VALID,20.3912,VALID,48,VALID,0,
2008-10-10, 02:08:00,VALID,916.492,VALID,0,VALID,100,VALID,-0.0169808,VALID,20.4007,VALID,48,VALID,0,
2008-10-10, 02:09:00,VALID,916.485,VALID,0,VALID,100,VALID,-0.0509425,VALID,20.3905,VALID,48,VALID,0,
2008-10-10, 02:10:00,VALID,916.476,VALID,0,VALID,100,VALID,-0.0339617,VALID,20.411,VALID,48,VALID,0,
2008-10-10, 02:11:00,VALID,916.465,VALID,0,VALID,100,VALID,-0.0679233,VALID,20.4002,VALID,48,VALID,0,
2008-10-10, 02:12:00,VALID,916.452,VALID,0,VALID,100,VALID,-0.0339617,VALID,20.4169,VALID,48,VALID,0,
2008-10-10, 02:13:00,VALID,916.455,VALID,0,VALID,100,VALID,-0.0339617,VALID,20.4299,VALID,48,VALID,0,
2008-10-10, 02:14:00,VALID,916.449,VALID,0,VALID,100,VALID,-0.0169808,VALID,20.4232,VALID,48,VALID,0,
2008-10-10, 02:15:00,VALID,916.439,VALID,0,VALID,100,VALID,-0.0339617,VALID,20.4232,VALID,48,VALID,0,
2008-10-10, 02:16:00,VALID,916.438,VALID,0,VALID,100,VALID,-0.0339617,VALID,20.4429,VALID,48,VALID,0,
2008-10-10, 02:17:00,VALID,916.438,VALID,0,VALID,100,VALID,-0.0169808,VALID,20.4459,VALID,48,VALID,0,
2008-10-10, 02:18:00,VALID,916.425,VALID,0,VALID,100,VALID,-0.0339617,VALID,20.4726,VALID,48,VALID,0,
2008-10-10, 02:19:00,VALID,916.423,VALID,0,VALID,100,VALID,-0.0169808,VALID,20.4886,VALID,48,VALID,0,
2008-10-10, 02:20:00,VALID,916.404,VALID,0,VALID,100,VALID,-0.0679233,VALID,20.4883,VALID,48,VALID,0,
2008-10-10, 02:21:00,VALID,916.405,VALID,0,VALID,100,VALID,0,VALID,20.5178,VALID,48,VALID,0,
2008-10-10, 02:22:00,VALID,916.388,VALID,0,VALID,100,VALID,-0.0339617,VALID,20.5276,VALID,48,VALID,0,
2008-10-10, 02:23:00,VALID,916.364,VALID,0,VALID,100,VALID,-0.0509425,VALID,20.5208,VALID,48,VALID,0,
2008-10-10, 02:24:00,VALID,916.341,VALID,0,VALID,100,VALID,-0.0169808,VALID,20.5205,VALID,48,VALID,0,
2008-10-10, 02:25:00,VALID,916.313,VALID,0,VALID,100,VALID,-0.0169808,VALID,20.5405,VALID,48,VALID,0,
2008-10-10, 02:26:00,VALID,916.303,VALID,0,VALID,100,VALID,-0.0679233,VALID,20.557,VALID,48,VALID,0,
2008-10-10, 02:27:00,VALID,916.263,VALID,0,VALID,100,VALID,-0.0509425,VALID,20.5527,VALID,48,VALID,0,
2008-10-10, 02:28:00,VALID,916.237,VALID,0,VALID,100,VALID,-0.0509425,VALID,20.6019,VALID,48,VALID,0,
2008-10-10, 02:29:00,VALID,916.207,VALID,0,VALID,100,VALID,0,VALID,20.6217,VALID,48,VALID,0,
2008-10-10, 02:30:00,VALID,916.175,VALID,0,VALID,100,VALID,-0.0679233,VALID,20.6189,VALID,48,VALID,0,
2008-10-10, 02:31:00,VALID,916.141,VALID,0,VALID,100,VALID,-0.0339617,VALID,20.6052,VALID,48,VALID,0,
2008-10-10, 02:32:00,VALID,916.129,VALID,0,VALID,100,VALID,-0.0339617,VALID,20.5857,VALID,48,VALID,0,
2008-10-10, 02:33:00,VALID,916.115,VALID,0,VALID,100,VALID,-0.101885,VALID,20.5665,VALID,48,VALID,0,
2008-10-10, 02:34:00,VALID,916.087,VALID,0,VALID,100,VALID,-0.0509425,VALID,20.547,VALID,48,VALID,0,
2008-10-10, 02:35:00,VALID,916.08,VALID,0,VALID,100,VALID,-0.0849042,VALID,20.5438,VALID,48,VALID,0,
2008-10-10, 02:36:00,VALID,916.053,VALID,0,VALID,100,VALID,-0.0509425,VALID,20.5076,VALID,47,VALID,0,
2008-10-10, 02:37:00,VALID,916.051,VALID,0,VALID,100,VALID,-0.0849042,VALID,20.5216,VALID,46,VALID,0,
2008-10-10, 02:38:00,VALID,916.029,VALID,0,VALID,100,VALID,-0.0169808,VALID,20.5018,VALID,46,VALID,0,
2008-10-10, 02:39:00,VALID,916.025,VALID,0,VALID,100,VALID,-0.0509425,VALID,20.4983,VALID,46,VALID,0,
2008-10-10, 02:40:00,VALID,915.999,VALID,0,VALID,100,VALID,-0.0339617,VALID,20.5213,VALID,46,VALID,0,
2008-10-10, 02:41:00,VALID,915.999,VALID,0,VALID,100,VALID,-0.0169808,VALID,20.547,VALID,46,VALID,0,
2008-10-10, 02:42:00,VALID,915.978,VALID,0,VALID,100,VALID,-0.0339617,VALID,20.5568,VALID,46,VALID,0,
2008-10-10, 02:43:00,VALID,915.969,VALID,0,VALID,100,VALID,-0.0849042,VALID,20.5668,VALID,46,VALID,0,
2008-10-10, 02:44:00,VALID,915.969,VALID,0,VALID,100,VALID,-0.101885,VALID,20.5473,VALID,46,VALID,0,
2008-10-10, 02:45:00,VALID,915.969,VALID,0,VALID,100,VALID,-0.0849042,VALID,20.5178,VALID,46,VALID,0,
2008-10-10, 02:46:00,VALID,915.962,VALID,0,VALID,100,VALID,-0.0339617,VALID,20.5211,VALID,46,VALID,0,
2008-10-10, 02:47:00,VALID,915.95,VALID,0,VALID,100,VALID,-0.0509425,VALID,20.4848,VALID,46,VALID,0,
2008-10-10, 02:48:00,VALID,915.939,VALID,0,VALID,100,VALID,-0.0339617,VALID,20.4694,VALID,46,VALID,0,
2008-10-10, 02:49:00,VALID,915.923,VALID,0,VALID,100,VALID,-0.0339617,VALID,20.4494,VALID,46,VALID,0,
2008-10-10, 02:50:00,VALID,915.913,VALID,0,VALID,100,VALID,-0.0339617,VALID,20.4294,VALID,46,VALID,0,
2008-10-10, 02:51:00,VALID,915.889,VALID,0,VALID,100,VALID,-0.0169808,VALID,20.4234,VALID,46,VALID,0,
2008-10-10, 02:52:00,VALID,915.883,VALID,0,VALID,100,VALID,-0.0339617,VALID,20.4167,VALID,46,VALID,0,
2008-10-10, 02:53:00,VALID,915.869,VALID,0,VALID,100,VALID,0,VALID,20.4199,VALID,46,VALID,0,
2008-10-10, 02:54:00,VALID,915.863,VALID,0,VALID,100,VALID,0,VALID,20.4267,VALID,46,VALID,0,
2008-10-10, 02:55:00,VALID,915.839,VALID,0,VALID,100,VALID,-0.0169808,VALID,20.4164,VALID,46,VALID,0,
2008-10-10, 02:56:00,VALID,915.836,VALID,0,VALID,100,VALID,0,VALID,20.4127,VALID,46,VALID,0,
2008-10-10, 02:57:00,VALID,915.831,VALID,0,VALID,100,VALID,0,VALID,20.4229,VALID,46,VALID,0,
2008-10-10, 02:58:00,VALID,915.844,VALID,0,VALID,100,VALID,0,VALID,20.4329,VALID,46,VALID,0,
2008-10-10, 02:59:00,VALID,915.847,VALID,0,VALID,100,VALID,0,VALID,20.4229,VALID,46,VALID,0,
2008-10-10, 03:00:00,VALID,915.84,VALID,0,VALID,100,VALID,-0.0339617,VALID,20.4491,VALID,48,VALID,0,
2008-10-10, 03:01:00,VALID,915.833,VALID,0,VALID,100,VALID,-0.0169808,VALID,20.4656,VALID,49,VALID,0,
2008-10-10, 03:02:00,VALID,915.819,VALID,0,VALID,100,VALID,-0.0169808,VALID,20.4946,VALID,47,VALID,0,
2008-10-10, 03:03:00,VALID,915.816,VALID,0,VALID,100,VALID,0,VALID,20.5013,VALID,46,VALID,0,
2008-10-10, 03:04:00,VALID,915.805,VALID,0,VALID,100,VALID,-0.0169808,VALID,20.497,VALID,46,VALID,0,
2008-10-10, 03:05:00,VALID,915.803,VALID,0,VALID,100,VALID,0,VALID,20.5006,VALID,44,VALID,0,
2008-10-10, 03:06:00,VALID,915.81,VALID,0,VALID,100,VALID,0,VALID,20.5008,VALID,35,VALID,0,
2008-10-10, 03:07:00,VALID,915.814,VALID,0,VALID,100,VALID,-0.0169808,VALID,20.4976,VALID,16,VALID,0,
2008-10-10, 03:08:00,VALID,915.82,VALID,0,VALID,100,VALID,-0.0339617,VALID,20.5046,VALID,14,VALID,0,
2008-10-10, 03:09:00,VALID,915.822,VALID,0,VALID,100,VALID,-0.0509425,VALID,20.517,VALID,20,VALID,0,
2008-10-10, 03:10:00,VALID,915.832,VALID,0,VALID,100,VALID,-0.0169808,VALID,20.5243,VALID,26,VALID,0,
2008-10-10, 03:11:00,VALID,915.83,VALID,0,VALID,100,VALID,0,VALID,20.5173,VALID,29,VALID,0,
2008-10-10, 03:12:00,VALID,915.829,VALID,0,VALID,100,VALID,0,VALID,20.5305,VALID,15,VALID,0,
2008-10-10, 03:13:00,VALID,915.826,VALID,0,VALID,100,VALID,0,VALID,20.533,VALID,2,VALID,0,
2008-10-10, 03:14:00,VALID,915.853,VALID,0,VALID,100,VALID,-0.0509425,VALID,20.5335,VALID,25,VALID,0,
2008-10-10, 03:15:00,VALID,915.854,VALID,0,VALID,100,VALID,0,VALID,20.5495,VALID,7,VALID,0,
2008-10-10, 03:16:00,VALID,915.862,VALID,0,VALID,100,VALID,-0.0169808,VALID,20.5462,VALID,7,VALID,0,
2008-10-10, 03:17:00,VALID,915.864,VALID,0,VALID,100,VALID,0,VALID,20.5168,VALID,7,VALID,0,
2008-10-10, 03:18:00,VALID,915.882,VALID,0,VALID,100,VALID,0,VALID,20.5235,VALID,24,VALID,0,
2008-10-10, 03:19:00,VALID,915.886,VALID,0,VALID,100,VALID,-0.0339617,VALID,20.4943,VALID,52,VALID,0,
2008-10-10, 03:20:00,VALID,915.908,VALID,0,VALID,100,VALID,-0.0339617,VALID,20.4754,VALID,51,VALID,0,
2008-10-10, 03:21:00,VALID,915.93,VALID,0,VALID,100,VALID,-0.0339617,VALID,20.4754,VALID,51,VALID,0,
2008-10-10, 03:22:00,VALID,915.931,VALID,0,VALID,100,VALID,0.0169808,VALID,20.4456,VALID,51,VALID,0,
2008-10-10, 03:23:00,VALID,915.945,VALID,0,VALID,100,VALID,0.0169808,VALID,20.4456,VALID,51,VALID,0,
2008-10-10, 03:24:00,VALID,915.944,VALID,0,VALID,100,VALID,-0.0169808,VALID,20.4424,VALID,51,VALID,0,
2008-10-10, 03:25:00,VALID,915.96,VALID,0,VALID,100,VALID,0,VALID,20.4649,VALID,51,VALID,0,
2008-10-10, 03:26:00,VALID,915.974,VALID,0,VALID,100,VALID,-0.0169808,VALID,20.4943,VALID,58,VALID,0,
2008-10-10, 03:27:00,VALID,915.969,VALID,0,VALID,100,VALID,0,VALID,20.4876,VALID,105,VALID,0,
2008-10-10, 03:28:00,VALID,915.981,VALID,0,VALID,100,VALID,0,VALID,20.4684,VALID,114,VALID,0,
2008-10-10, 03:29:00,VALID,915.986,VALID,0,VALID,100,VALID,0,VALID,20.4491,VALID,116,VALID,0,
2008-10-10, 03:30:00,VALID,915.99,VALID,0,VALID,100,VALID,-0.0169808,VALID,20.4391,VALID,116,VALID,0,
2008-10-10, 03:31:00,VALID,916.025,VALID,0,VALID,100,VALID,-0.0169808,VALID,20.4364,VALID,117,VALID,0,
2008-10-10, 03:32:00,VALID,916.029,VALID,0,VALID,100,VALID,0.0169808,VALID,20.4359,VALID,127,VALID,0,
2008-10-10, 03:33:00,VALID,916.045,VALID,0,VALID,100,VALID,-0.0169808,VALID,20.4329,VALID,145,VALID,0,
2008-10-10, 03:34:00,VALID,916.055,VALID,0,VALID,100,VALID,-0.0169808,VALID,20.4229,VALID,160,VALID,0,
2008-10-10, 03:35:00,VALID,916.077,VALID,0,VALID,100,VALID,0,VALID,20.4164,VALID,168,VALID,0,
2008-10-10, 03:36:00,VALID,916.087,VALID,0,VALID,100,VALID,0.0169808,VALID,20.4262,VALID,168,VALID,0,
2008-10-10, 03:37:00,VALID,916.097,VALID,0,VALID,100,VALID,0,VALID,20.4164,VALID,175,VALID,0,
2008-10-10, 03:38:00,VALID,916.106,VALID,0,VALID,100,VALID,0,VALID,20.4132,VALID,178,VALID,0,
2008-10-10, 03:39:00,VALID,916.122,VALID,0,VALID,100,VALID,0,VALID,20.4294,VALID,178,VALID,0,
2008-10-10, 03:40:00,VALID,916.134,VALID,0,VALID,100,VALID,0,VALID,20.4294,VALID,178,VALID,0,
2008-10-10, 03:41:00,VALID,916.137,VALID,0,VALID,100,VALID,0,VALID,20.4489,VALID,178,VALID,0,
2008-10-10, 03:42:00,VALID,916.145,VALID,0,VALID,100,VALID,0,VALID,20.4391,VALID,180,VALID,0,
2008-10-10, 03:43:00,VALID,916.148,VALID,0,VALID,100,VALID,0,VALID,20.4292,VALID,190,VALID,0,
2008-10-10, 03:44:00,VALID,916.162,VALID,0,VALID,100,VALID,0,VALID,20.4302,VALID,191,VALID,0,
2008-10-10, 03:45:00,VALID,916.176,VALID,0,VALID,100,VALID,-0.0169808,VALID,20.3999,VALID,191,VALID,0,
2008-10-10, 03:46:00,VALID,916.169,VALID,0,VALID,100,VALID,-0.0339617,VALID,20.4099,VALID,191,VALID,0,
2008-10-10, 03:47:00,VALID,916.195,VALID,0,VALID,100,VALID,0.0339617,VALID,20.4324,VALID,191,VALID,0,
2008-10-10, 03:48:00,VALID,916.199,VALID,0,VALID,100,VALID,-0.0169808,VALID,20.4294,VALID,191,VALID,0,
2008-10-10, 03:49:00,VALID,916.214,VALID,0,VALID,100,VALID,-0.0169808,VALID,20.4067,VALID,191,VALID,0,
2008-10-10, 03:50:00,VALID,916.205,VALID,0,VALID,100,VALID,-0.0509425,VALID,20.4072,VALID,191,VALID,0,
2008-10-10, 03:51:00,VALID,916.196,VALID,0,VALID,100,VALID,-0.0509425,VALID,20.4102,VALID,191,VALID,0,
2008-10-10, 03:52:00,VALID,916.173,VALID,0,VALID,100,VALID,-0.0169808,VALID,20.4037,VALID,191,VALID,0,
2008-10-10, 03:53:00,VALID,916.175,VALID,0,VALID,100,VALID,-0.0509425,VALID,20.3905,VALID,191,VALID,0,
2008-10-10, 03:54:00,VALID,916.167,VALID,0,VALID,100,VALID,-0.0339617,VALID,20.381,VALID,191,VALID,0,
2008-10-10, 03:55:00,VALID,916.16,VALID,0,VALID,100,VALID,-0.0339617,VALID,20.3745,VALID,191,VALID,0,